Location: Unspecified
(41.9000°N, 12.4830°E)
Time: 06:16:39
(UTC+02:00)

ISS - Visible Passes

Search period start: 01 May 2017 00:00
Search period end: 11 May 2017 00:00
Orbit: 401 x 409 km, 51.6° (Epoch: 01 May)

Date Brightness Start Highest point End Pass type
(mag) Time Alt. Az. Time Alt. Az. Time Alt. Az.
04 May -0.9 04:54:00 10° SE 04:54:24 10° SE 04:54:49 10° ESE visible
06 May -2.0 04:44:14 14° S 04:46:21 24° SE 04:49:04 10° E visible
07 May -1.3 03:54:13 13° SE 03:54:25 13° SE 03:56:02 10° E visible
08 May -3.6 04:36:46 26° SSW 04:38:23 59° SE 04:41:37 10° ENE visible
09 May -2.5 03:46:35 30° SE 03:46:35 30° SE 03:49:15 10° ENE visible
09 May -2.7 05:19:42 10° W 05:22:46 36° NNW 05:25:50 10° NE visible
10 May -0.8 02:56:20 11° E 02:56:20 11° E 02:56:29 10° E visible
10 May -3.5 04:28:59 27° WSW 04:30:31 59° NNW 04:33:45 10° NE visible
